YZ-1 R/B, 44544

Orbit data source: Space-Track

YZ-1 R/B, 44544 is space debris in MEO originally from a launch on Sun, 22 Sep 2019 UTC launched from the Xichang Space Center, China (XSC). Debris objects in space refer to the collection of defunct objects orbiting the Earth. Examples of debris include non-operational satellites, rocket bodies, and fragments generated from explosions, collisions, or faulty payload assembly.

Loading next visibility...
Identifier
44544, 2019-061C
Orbit
MEO
Country
Flag of CNCN / PRC
Related business
Manufacturer
CALT
Mission
Spacecraft
Bus & Motor
YZ-1, Unknown motor
Mass
~2,075 kg wet, ~2,075 kg dry
Launch date (UTC)
2019-09-22 (7 years ago)
Launch vehicle
Unknown
Launch site
Xichang Space Center, China (XSC)
Object type
Payload
Rocket body
Debris
Shape & HBR
Double Cone, 2.0 m
Radar Cross Section
5.890 m², Large (>1 m²)

Expand to show TLE details & history
Last TLE update: 3 days ago

TLE from 3 days ago
0 YZ-1 R/B
1 44544U 19061C   26170.26325228  .00000056  00000-0  00000-0 0  9995
2 44544  54.4386 188.4442 0035109 256.6356 103.0065  1.80432534 44424
Epoch: 2026-06-19T06:19Z
TLE epoch observation values (Epoch: 2026-06-19T06:19:04.996Z)
Latitude
0.00001°
Longitude
-173.81695°
Altitude
22,145.88 km
Speed
3.737 km/s
True Right ascension
12h 33m 47s
True Declination
0° 00' 00"
Sunlit
Object was in daylight at epoch
Visualization orbit readout
Latitude
Unknown
Longitude
Unknown
Altitude
Unknown
Speed
Unknown
Apparent Right ascension
Unknown
Apparent Declination
Unknown
Sunlit
N/A
Visualization observer readout
Local Sidereal Time
21:23:44
Azimuth
Unknown
Elevation
Unknown
Doppler factor
Unknown
Orbital elements
Apogee altitude
22,222.858 km
Perigee altitude
22,022.73 km
Semi-major axis
28,500.931 km
Eccentricity
0.00351
Inclination
54.4386°
RAAN
188.4442°
Arg. of periapsis
256.6356°
True anomaly
103.39811°
Mean anomaly
103.0065°
Eccentric anomaly
103.20234°
Mean motion
0.45108 °/min
Orbital period
798.08 mins
BSTAR
0
Loading maneuver chart data...
Computing Atmospheric mass density...
Loading historical data...
Loading historical data...
Loading historical data...
Loading historical data...
Loading historical data...
Loading historical data...
Loading historical data...
Other satellites on launch #61 in the year 2019 (2019-09-22 UTC)

Documentation

Showing up to 5 results
|